Location: Unspecified
(48.2082°N, 0.0000°E)
Time: 21:20:11
(UTC+00:00)

Vanguard 1 - Pass Details

Date: 27 June 2019
Orbit: 653 x 3830 km, 34.3° (Epoch: 15 July)

Event Time Altitude Azimuth Distance (km) Brightness Sun altitude
Rises 00:19:35 0° 218° (SW) 7,959 - -18.4°
Reaches altitude 10° 00:25:57 10° 211° (SSW) 6,890 - -18.3°
Exits shadow 00:31:34 19° 202° (SSW) 5,958 13.4 -18.2°
Maximum altitude 00:44:19 35° 156° (SSE) 4,347 12.9 -17.9°
Drops below altitude 10° 00:57:12 10° 99° (E) 4,896 13.7 -17.4°
Sets 01:00:44 0° 90° (E) 5,506 14.1 -17.3°
